Regional Weather Roundup
Issued by NWS Goodland, KS

Home | Current Version | Previous Version | Graphics & Text | Print | Product List | Glossary On
Versions: 1 2 3 4 5 6 7 8 9 10 11 12 13 14 15 16 17 18 19 20 21 22 23 24 25 26 27 28 29 30 31 32 33 34 35 36 37 38 39 40 41 42 43 44 45 46 47 48 49 50
000
ASUS43 KGLD 300059
RWRGLD

GOODLAND FORECAST AREA HOURLY WEATHER ROUNDUP
NATIONAL WEATHER SERVICE GOODLAND KS
700 PM MDT WED OCT 29 2014

...OFFICIAL OBSERVATIONS...

CITY           SKY/WX    TMP DP  RH WIND       PRES   REMARKS
GOODLAND KS    CLEAR     54  25  32 S9        30.05R
HILL CITY KS   CLEAR     57  36  45 SW3       30.01S
IMPERIAL NEB   PTCLDY    63  18  17 W14       29.99R
MCCOOK NEB     CLEAR     56  29  35 S8        29.97F
AKRON CO       CLEAR     59  22  24 N16       30.10R
BURLINGTON CO  CLEAR     54  24  31 SW12      30.07R
LIMON CO       CLEAR     45  21  38 N6        30.13R
$$

...UNOFFICIAL OBSERVATIONS...

CITY           SKY/WX    TMP DP  RH WIND       PRES   REMARKS
COLBY KS       CLEAR     57  36  44 S7        30.02F
NORTON KS      CLEAR     59  30  33 S9        29.98S
TRIBUNE KS     CLEAR     52  37  58 S5        30.08S
TRENTON NEB      N/A     56  32  40 S6          N/A
$$



USA.gov is the U.S. government's official web portal to all federal, state and local government web resources and services.